User: anonymous   Login
Location: Unspecified
(0.0000°N, 0.0000°E)
Time: 08:32:48
(UTC+00:00)
Language:

NNS O-27 - Orbit

View from above orbital plane
View from above orbital plane
View from above satellite
View from above satellite

Ground track
Ground track

The orbit data is extracted from the following two-line orbital elements,

1 18361U 87080A   19345.79906891  .00000033  00000-0  41014-4 0  9993
2 18361  90.3147   4.8267 0105236  23.9728 336.6267 13.44487427581124
Epoch (UTC): 11 December 2019 19:10:39
Eccentricity: 0.0105236
inclination: 90.3147°
perigee height: 1014 km
apogee height: 1171 km
right ascension of ascending node: 4.8267°
argument of perigee: 23.9728°
revolutions per day: 13.44487427
mean anomaly at epoch: 336.6267°
orbit number at epoch: 58112

The dashed part of the orbit path shows where the satellite is in the earth's shadow,  

DLR